GW3733 Weather Reports


time (UTC)temp
F
wind
direction
speed
knots
gust
knots
rain 1hr
in
rain 24hr
in
rain mn
in
humidity
%
barometer
mb
20260902150503 88 358 0.9 1.7 0.00 0.00 0.00 71 1015.3
20260902145958 87 1 0.0 0.9 0.00 0.00 0.00 77 1015.2
20260902145453 87 20 0.0 0.0 0.00 0.00 0.00 70 1014.9
20260902144948 87 18 0.0 0.9 0.00 0.00 0.00 72 1015.0
20260902144444 87 25 0.9 1.7 0.00 0.00 0.00 71 1015.0
20260902143938 86 35 0.9 0.9 0.00 0.00 0.00 76 1015.1
20260902143434 86 332 0.9 0.9 0.00 0.00 0.00 81 1015.1
20260902142928 87 21 0.9 0.9 0.00 0.00 0.00 76 1015.0
20260902142424 85 20 0.0 0.0 0.00 0.00 0.00 84 1015.1
20260902141920 85 28 0.0 0.0 0.00 0.00 0.00 76 1015.0
20260902141415 84 16 0.0 0.0 0.00 0.00 0.00 83 1015.3
20260902140914 83 351 0.0 0.0 0.00 0.00 0.00 84 1015.1
20260902140410 80 350 0.0 0.0 0.00 0.00 0.00 89 1014.9
20260902135904 80 350 0.0 0.0 0.00 0.00 0.00 91 1015.0
20260902135400 79 350 0.0 0.0 0.00 0.00 0.00 90 1015.0
20260902134858 79 339 0.0 0.0 0.00 0.00 0.00 90 1015.1
20260902134354 80 339 0.0 0.0 0.00 0.00 0.00 89 1015.0
20260902133849 81 350 0.0 0.0 0.00 0.00 0.00 86 1015.1
20260902133349 82 350 0.0 0.0 0.00 0.00 0.00 83 1015.3
20260902132844 82 350 0.0 0.0 0.00 0.00 0.00 84 1015.1
20260902132339 80 328 0.0 0.0 0.00 0.00 0.00 85 1015.2
20260902131835 78 328 0.0 0.0 0.00 0.00 0.00 88 1015.1
20260902131331 76 328 0.0 0.0 0.00 0.00 0.00 91 1014.9
20260902130830 75 326 0.0 0.0 0.00 0.00 0.00 92 1015.1
20260902130326 73 326 0.0 0.0 0.00 0.00 0.00 94 1015.0
20260902125821 73 326 0.0 0.0 0.00 0.00 0.00 95 1015.4
20260902125317 72 7 0.0 0.0 0.00 0.00 0.00 96 1015.2
20260902124813 72 331 0.0 0.0 0.00 0.00 0.00 97 1015.3
20260902124309 71 349 0.0 0.0 0.00 0.00 0.00 98 1015.2
20260902123803 71 337 0.0 0.0 0.00 0.00 0.00 99 1015.1
20260902123300 70 331 0.0 0.0 0.00 0.00 0.00 99 1015.2
20260902122758 69 331 0.0 0.0 0.00 0.00 0.00 99 1015.1
20260902122254 69 319 0.0 0.0 0.00 0.00 0.00 99 1015.2
20260902121749 69 331 0.0 0.0 0.00 0.00 0.00 99 1014.9
20260902121243 69 331 0.0 0.0 0.00 0.00 0.00 99 1015.1
20260902120739 69 319 0.0 0.0 0.00 0.00 0.00 99 1015.2
20260902120235 68 319 0.0 0.0 0.00 0.00 0.00 99 1015.1
20260902115730 68 319 0.0 0.0 0.00 0.00 0.00 99 1015.2
20260902115226 68 319 0.0 0.0 0.00 0.00 0.00 99 1014.9
20260902114722 68 319 0.0 0.0 0.00 0.00 0.00 99 1015.0
20260902114217 68 319 0.0 0.0 0.00 0.00 0.00 99 1015.0
20260902113711 68 319 0.0 0.0 0.00 0.00 0.00 99 1015.1
20260902113206 68 313 0.0 0.0 0.00 0.00 0.00 99 1015.0
20260902112701 67 324 0.0 0.0 0.00 0.00 0.00 99 1015.1
20260902112159 67 319 0.0 0.0 0.00 0.00 0.00 99 1015.0
20260902111654 67 325 0.0 0.0 0.00 0.00 0.00 99 1015.1
20260902111149 67 324 0.0 0.0 0.00 0.00 0.00 99 1015.1
20260902110645 67 324 0.0 0.0 0.00 0.00 0.00 99 1015.2
20260902110141 67 324 0.0 0.0 0.00 0.00 0.00 99 1015.0
20260902105640 67 324 0.0 0.0 0.00 0.00 0.00 99 1014.9
20260902105136 67 324 0.0 0.0 0.00 0.00 0.00 99 1015.0
20260902104631 67 324 0.0 0.0 0.00 0.00 0.00 99 1015.2
20260902104126 67 324 0.0 0.0 0.00 0.00 0.00 99 1015.2
20260902103625 67 324 0.0 0.0 0.00 0.00 0.00 99 1014.9
20260902103121 67 324 0.0 0.0 0.00 0.00 0.00 99 1015.1
20260902102617 67 324 0.0 0.0 0.00 0.00 0.00 99 1015.1
20260902102114 67 324 0.0 0.0 0.00 0.00 0.00 99 1014.9
20260902101609 67 324 0.0 0.0 0.00 0.00 0.00 99 1015.0
20260902101109 68 324 0.0 0.0 0.00 0.00 0.00 99 1015.1
20260902100603 68 324 0.0 0.0 0.00 0.00 0.00 99 1014.8
20260902100058 68 324 0.0 0.0 0.00 0.00 0.00 99 1014.9
20260902095557 68 324 0.0 0.0 0.00 0.00 0.00 99 1014.7
20260902095056 68 324 0.0 0.0 0.00 0.00 0.00 99 1014.9
20260902094547 68 324 0.0 0.0 0.00 0.00 0.00 99 1015.0
20260902094042 68 324 0.0 0.0 0.00 0.00 0.00 99 1015.0
20260902093537 68 324 0.0 0.0 0.00 0.00 0.00 99 1014.7
20260902093037 68 324 0.0 0.0 0.00 0.00 0.00 99 1014.9
20260902092532 68 324 0.0 0.0 0.00 0.00 0.00 99 1015.0
20260902092027 68 324 0.0 0.0 0.00 0.00 0.00 99 1014.9
20260902091522 68 324 0.0 0.0 0.00 0.00 0.00 99 1015.0
20260902091018 68 324 0.0 0.0 0.00 0.00 0.00 99 1014.9
20260902090514 68 324 0.0 0.0 0.00 0.00 0.00 99 1015.0
20260902090013 68 324 0.0 0.0 0.00 0.00 0.00 99 1015.0
20260902085513 68 324 0.0 0.0 0.00 0.00 0.00 99 1014.7
20260902085008 68 324 0.0 0.0 0.00 0.00 0.00 99 1015.0
20260902084504 68 324 0.0 0.0 0.00 0.00 0.00 99 1014.9
20260902084000 68 324 0.0 0.0 0.00 0.00 0.00 99 1015.0
20260902083454 69 324 0.0 0.0 0.00 0.00 0.00 99 1014.9
20260902082949 69 324 0.0 0.0 0.00 0.00 0.00 99 1014.8
20260902082444 69 324 0.0 0.0 0.00 0.00 0.00 99 1014.6
20260902081941 69 324 0.0 0.0 0.00 0.00 0.00 99 1014.8
20260902081437 69 324 0.0 0.0 0.00 0.00 0.00 99 1014.6
20260902080931 69 324 0.0 0.0 0.00 0.00 0.00 99 1014.6
20260902080427 69 324 0.0 0.0 0.00 0.00 0.00 99 1014.8
20260902075922 69 324 0.0 0.0 0.00 0.00 0.00 99 1014.5
20260902075418 69 324 0.0 0.0 0.00 0.00 0.00 99 1014.6
20260902074913 70 324 0.0 0.0 0.00 0.00 0.00 99 1014.8
20260902074409 70 324 0.0 0.0 0.00 0.00 0.00 99 1014.7
20260902073903 70 324 0.0 0.0 0.00 0.00 0.00 99 1014.6
20260902073400 70 324 0.0 0.0 0.00 0.00 0.00 99 1014.7
20260902072855 70 324 0.0 0.0 0.00 0.00 0.00 99 1014.6
20260902072351 70 324 0.0 0.0 0.00 0.00 0.00 99 1014.5
20260902071848 70 324 0.0 0.0 0.00 0.00 0.00 99 1014.6
20260902071347 70 324 0.0 0.0 0.00 0.00 0.00 99 1014.4
20260902070843 70 324 0.0 0.0 0.00 0.00 0.00 99 1014.5
20260902070338 70 324 0.0 0.0 0.00 0.00 0.00 99 1014.4
20260902065837 70 324 0.0 0.0 0.00 0.00 0.00 99 1014.4
20260902065332 70 324 0.0 0.0 0.00 0.00 0.00 98 1014.4
20260902064827 70 324 0.0 0.0 0.00 0.00 0.00 98 1014.4
20260902064323 70 324 0.0 0.0 0.00 0.00 0.00 98 1014.7
20260902063818 70 324 0.0 0.0 0.00 0.00 0.00 98 1014.5
20260902063312 70 324 0.0 0.0 0.00 0.00 0.00 98 1014.5
20260902062807 70 324 0.0 0.0 0.00 0.00 0.00 98 1014.7
20260902062305 70 324 0.0 0.0 0.00 0.00 0.00 98 1014.6
20260902061802 70 324 0.0 0.0 0.00 0.00 0.00 98 1015.0
20260902061256 70 324 0.0 0.0 0.00 0.00 0.00 98 1014.9
20260902060754 70 324 0.0 0.0 0.00 0.00 0.00 98 1015.0
20260902060249 69 324 0.0 0.0 0.00 0.00 0.00 98 1015.1
20260902055744 69 324 0.0 0.0 0.00 0.00 0.00 98 1015.2
20260902055240 69 324 0.0 0.0 0.00 0.00 0.00 98 1015.2
20260902054735 69 324 0.0 0.0 0.00 0.00 0.00 98 1015.2
20260902054230 69 324 0.0 0.0 0.00 0.00 0.00 98 1015.1
20260902053725 69 324 0.0 0.0 0.00 0.00 0.00 98 1015.0
20260902053220 69 324 0.0 0.0 0.00 0.00 0.00 99 1015.2
20260902052719 69 324 0.0 0.0 0.00 0.00 0.00 99 1015.2
20260902052215 69 324 0.0 0.0 0.00 0.00 0.00 99 1015.1
20260902051714 69 324 0.0 0.0 0.00 0.00 0.00 99 1015.1
20260902051209 69 324 0.0 0.0 0.00 0.00 0.00 99 1014.9
20260902050704 69 324 0.0 0.0 0.00 0.00 0.00 99 1014.9
20260902050159 69 324 0.0 0.0 0.00 0.00 0.00 99 1014.9
20260902045653 69 324 0.0 0.0 0.00 0.00 0.00 99 1015.0
20260902045149 69 324 0.0 0.0 0.00 0.00 0.00 99 1015.0
20260902044643 69 324 0.0 0.0 0.00 0.00 0.00 99 1015.0
20260902044140 69 324 0.0 0.0 0.00 0.00 0.00 99 1014.8
20260902043635 69 324 0.0 0.0 0.00 0.00 0.00 98 1014.6
20260902043131 69 324 0.0 0.0 0.00 0.00 0.00 98 1014.5
20260902042630 69 324 0.0 0.0 0.00 0.00 0.00 98 1014.5
20260902042125 69 324 0.0 0.0 0.00 0.00 0.00 98 1014.4
20260902041625 69 324 0.0 0.0 0.00 0.00 0.00 98 1014.2
20260902041120 70 324 0.0 0.0 0.00 0.00 0.00 97 1014.2
20260902040619 70 324 0.0 0.0 0.00 0.00 0.00 97 1014.1
20260902040114 70 324 0.0 0.0 0.00 0.00 0.00 97 1014.0
20260902035613 70 324 0.0 0.0 0.00 0.00 0.00 97 1014.0
20260902035108 70 324 0.0 0.0 0.00 0.00 0.00 97 1013.7
20260902034607 70 324 0.0 0.0 0.00 0.00 0.00 96 1013.7
20260902034101 70 324 0.0 0.0 0.00 0.00 0.00 96 1013.9
20260902033601 71 324 0.0 0.0 0.00 0.00 0.00 96 1013.6
20260902033055 71 324 0.0 0.0 0.00 0.00 0.00 95 1013.9
20260902032554 71 324 0.9 0.9 0.00 0.00 0.00 95 1013.9
20260902032049 71 324 0.0 0.0 0.00 0.00 0.00 94 1013.6
20260902031544 71 324 0.0 0.0 0.00 0.00 0.00 94 1013.4
20260902031040 72 324 0.0 0.0 0.00 0.00 0.00 93 1013.5
20260902030539 72 324 0.0 0.0 0.00 0.00 0.00 93 1013.5
20260902030039 72 324 0.0 0.0 0.00 0.00 0.00 92 1013.3
20260902025534 72 324 0.0 0.0 0.00 0.00 0.00 91 1013.2
20260902025030 73 324 0.0 0.0 0.00 0.00 0.00 91 1013.3
20260902024525 73 324 0.0 0.0 0.00 0.00 0.00 91 1013.4
20260902024019 73 324 0.0 0.0 0.00 0.00 0.00 90 1013.3
20260902023510 74 325 0.0 0.0 0.00 0.00 0.00 89 1013.3
20260902023009 74 329 0.0 0.0 0.00 0.00 0.00 89 1013.3
20260902022504 74 333 0.0 0.0 0.00 0.00 0.00 88 1013.4
20260902022000 75 344 0.0 0.0 0.00 0.00 0.00 87 1013.5
20260902021455 76 344 0.0 0.0 0.00 0.00 0.00 86 1013.6
20260902020950 76 344 0.0 0.0 0.00 0.00 0.00 85 1013.9
20260902020446 77 343 0.0 0.0 0.00 0.00 0.00 84 1013.9
20260902015942 77 343 0.0 0.0 0.00 0.00 0.00 83 1013.6
20260902015437 78 321 0.9 1.7 0.00 0.00 0.00 79 1014.0
20260902014932 79 7 0.9 0.9 0.00 0.00 0.00 76 1014.1
20260902014429 78 23 0.0 0.9 0.00 0.00 0.00 77 1014.0
20260902013928 78 14 0.0 0.0 0.00 0.00 0.00 78 1013.5
20260902013424 78 357 0.0 0.0 0.00 0.00 0.00 77 1013.7
20260902012919 79 320 0.0 0.9 0.00 0.00 0.00 76 1013.6
20260902012414 78 3 0.0 0.0 0.00 0.00 0.00 78 1013.2
20260902011910 77 348 0.0 0.0 0.00 0.00 0.00 81 1013.5
20260902011405 77 344 0.0 0.0 0.00 0.00 0.00 81 1013.5
20260902010905 77 345 0.0 0.0 0.00 0.00 0.00 83 1013.3
20260902010359 77 345 0.0 0.0 0.00 0.00 0.00 81 1013.3
20260902005858 77 345 0.0 0.0 0.00 0.00 0.00 80 1013.1
20260902005352 78 345 0.0 0.0 0.00 0.00 0.00 79 1013.0
20260902004848 78 345 0.0 0.0 0.00 0.00 0.00 80 1012.9
20260902004343 79 351 0.0 0.0 0.00 0.00 0.00 78 1013.0
20260902003838 80 351 0.0 0.0 0.00 0.00 0.00 74 1013.3
20260902003333 81 354 0.0 0.0 0.00 0.00 0.00 75 1013.2
20260902002829 81 348 0.9 0.9 0.00 0.00 0.00 72 1013.2
20260902002328 81 330 0.0 0.9 0.00 0.00 0.00 74 1012.9
20260902001823 82 349 1.7 1.7 0.00 0.00 0.00 72 1013.0
20260902001318 82 343 0.9 0.9 0.00 0.00 0.00 72 1012.7
20260902000818 82 352 0.9 0.9 0.00 0.00 0.00 72 1012.9
20260902000313 82 343 1.7 1.7 0.00 0.00 0.00 70 1012.7
20260901235808 82 345 1.7 1.7 0.00 0.00 0.00 71 1012.6
20260901235307 82 350 0.9 0.9 0.00 0.00 0.00 70 1012.7
20260901234803 82 345 0.0 0.0 0.00 0.00 0.00 72 1012.8
20260901234257 81 5 0.0 0.0 0.00 0.00 0.00 75 1012.6
20260901233757 80 344 0.9 1.7 0.00 0.00 0.00 77 1012.6
20260901233253 81 270 1.7 1.7 0.00 0.00 0.00 78 1012.7
20260901232748 81 9 0.0 0.0 0.00 0.00 0.00 77 1012.7
20260901232238 82 346 0.0 0.0 0.00 0.00 0.00 75 1012.6
20260901231734 83 351 0.9 0.9 0.00 0.00 0.00 73 1012.6
20260901231230 83 354 1.7 1.7 0.00 0.00 0.00 72 1012.4
20260901230725 83 333 0.9 0.9 0.00 0.00 0.00 74 1012.5
20260901230219 83 355 0.9 0.9 0.00 0.00 0.00 76 1012.6
20260901225715 83 347 0.0 0.0 0.00 0.00 0.00 77 1012.6
20260901225209 83 346 0.9 0.9 0.00 0.00 0.00 77 1012.8
20260901224705 82 346 0.9 0.9 0.00 0.00 0.00 80 1012.7
20260901224201 83 346 0.0 0.0 0.00 0.00 0.00 80 1012.8
20260901223656 83 346 0.0 0.0 0.00 0.00 0.00 78 1012.4
20260901223151 84 358 0.0 0.0 0.00 0.00 0.00 77 1012.6
20260901222648 84 350 0.0 0.0 0.00 0.00 0.00 76 1012.8
20260901222144 85 350 0.0 0.0 0.00 0.00 0.00 76 1012.6
20260901221639 84 347 0.0 0.0 0.00 0.00 0.00 75 1012.7
20260901221135 85 38 0.9 1.7 0.00 0.00 0.00 73 1012.7
20260901220634 85 355 0.0 0.0 0.00 0.00 0.00 73 1013.0
20260901220134 85 8 1.7 2.6 0.00 0.00 0.00 73 1012.6
20260901215632 85 17 0.0 0.0 0.00 0.00 0.00 77 1012.7
20260901215126 85 1 0.0 0.0 0.00 0.00 0.00 73 1012.7
20260901214624 85 24 1.7 2.6 0.00 0.00 0.00 71 1012.7
20260901214118 86 346 0.0 0.0 0.00 0.00 0.00 73 1012.5
20260901213613 86 298 2.6 3.5 0.00 0.00 0.00 69 1012.6
20260901213107 86 326 0.9 0.9 0.00 0.00 0.00 71 1012.5
20260901212602 87 355 0.0 0.0 0.00 0.00 0.00 72 1012.6
20260901212058 87 346 0.0 0.0 0.00 0.00 0.00 69 1012.6
20260901211553 88 349 1.7 2.6 0.00 0.00 0.00 67 1012.8
20260901211049 88 10 0.9 0.9 0.00 0.00 0.00 66 1012.6
20260901210544 88 338 0.9 0.9 0.00 0.00 0.00 68 1012.5
20260901210041 87 334 2.6 2.6 0.00 0.00 0.00 68 1012.5
20260901205535 87 340 0.0 0.0 0.00 0.00 0.00 69 1012.5
20260901205030 87 357 0.0 0.0 0.00 0.00 0.00 70 1012.6
20260901204526 87 348 0.0 0.0 0.00 0.00 0.00 72 1012.5
20260901204021 87 343 0.0 0.0 0.00 0.00 0.00 68 1012.7
20260901203521 87 293 0.0 0.0 0.00 0.00 0.00 68 1012.7
20260901203016 87 341 0.0 0.0 0.00 0.00 0.00 69 1012.9
20260901202510 87 337 0.0 0.0 0.00 0.00 0.00 70 1012.6
20260901202006 87 346 0.0 0.0 0.00 0.00 0.00 72 1012.8
20260901201501 87 351 0.0 0.0 0.00 0.00 0.00 67 1012.9
20260901200956 88 342 0.0 0.0 0.00 0.00 0.00 68 1012.5
20260901200451 87 341 0.0 0.0 0.00 0.00 0.00 67 1012.6
20260901195950 88 349 0.0 0.0 0.00 0.00 0.00 66 1012.6
20260901195449 88 330 0.0 0.0 0.00 0.00 0.00 69 1012.6
20260901194943 88 4 0.0 0.0 0.00 0.00 0.00 65 1012.6
20260901194438 89 318 0.0 0.0 0.00 0.00 0.00 64 1012.6
20260901193935 90 336 0.0 0.0 0.00 0.00 0.00 63 1012.5
20260901193434 91 334 0.0 0.0 0.00 0.00 0.00 62 1012.7
20260901192933 91 340 0.0 0.0 0.00 0.00 0.00 63 1012.7
20260901192429 89 358 0.0 0.0 0.00 0.00 0.00 64 1012.9
20260901191925 91 353 0.0 0.0 0.00 0.00 0.00 64 1012.8
20260901191422 89 336 0.0 0.0 0.00 0.00 0.00 63 1013.0
20260901190916 88 0 0.0 0.0 0.00 0.00 0.00 65 1013.0
20260901190411 90 333 0.0 0.0 0.00 0.00 0.00 61 1013.3
20260901185909 91 351 0.0 0.0 0.00 0.00 0.00 65 1013.1
20260901185409 92 339 0.0 0.0 0.00 0.00 0.00 65 1013.2
20260901184903 91 331 0.0 0.0 0.00 0.00 0.00 59 1013.1
20260901184359 90 49 0.0 0.0 0.00 0.00 0.00 60 1013.3
20260901183854 90 342 0.0 0.0 0.00 0.00 0.00 62 1013.4
20260901183353 90 341 0.0 0.0 0.00 0.00 0.00 63 1013.5
20260901182849 89 341 0.0 0.0 0.00 0.00 0.00 63 1013.9
20260901182350 89 336 0.0 0.0 0.00 0.00 0.00 63 1013.6
20260901181844 91 326 0.0 0.0 0.00 0.00 0.00 61 1013.9
20260901181339 89 352 0.0 0.0 0.00 0.00 0.00 63 1013.5
20260901180838 90 205 0.0 0.0 0.00 0.00 0.00 61 1013.9
20260901180337 91 164 0.0 0.0 0.00 0.00 0.00 64 1013.7
20260901175836 90 358 0.0 0.0 0.00 0.00 0.00 64 1013.7
20260901175331 89 343 0.0 0.0 0.00 0.00 0.00 64 1014.0
20260901174826 89 294 0.0 0.0 0.00 0.00 0.00 66 1014.0
20260901174322 87 333 0.0 0.0 0.00 0.00 0.00 74 1013.5
20260901173817 87 357 0.0 0.0 0.00 0.00 0.00 72 1013.7
20260901173312 86 355 0.0 0.0 0.00 0.00 0.00 70 1013.5
20260901172809 86 340 0.0 0.0 0.00 0.00 0.00 73 1013.6
20260901172308 86 304 0.0 0.0 0.00 0.00 0.00 72 1013.4
20260901171806 87 351 0.0 0.0 0.00 0.00 0.00 72 1013.3
20260901171305 87 351 0.0 0.0 0.00 0.00 0.00 70 1013.3
20260901170805 88 355 0.0 0.0 0.00 0.00 0.00 67 1013.5
20260901170259 89 2 0.0 0.0 0.00 0.00 0.00 67 1013.6
20260901165757 89 309 0.0 0.0 0.00 0.00 0.00 68 1013.5
20260901165252 88 330 0.0 0.0 0.00 0.00 0.00 72 1013.4
20260901164749 89 343 0.0 0.0 0.00 0.00 0.00 67 1013.9
20260901164244 88 347 0.0 0.0 0.00 0.00 0.00 73 1014.0
20260901163739 88 348 0.0 0.0 0.00 0.00 0.00 70 1014.0
20260901163239 89 58 0.0 0.0 0.00 0.00 0.00 66 1013.9
20260901162734 89 354 0.0 0.0 0.00 0.00 0.00 68 1013.9
20260901162233 88 73 0.0 0.0 0.00 0.00 0.00 71 1013.6
20260901161732 88 307 0.0 0.0 0.00 0.00 0.00 68 1013.7
20260901161227 88 8 0.0 0.0 0.00 0.00 0.00 70 1013.7
20260901160723 88 323 0.0 0.0 0.00 0.00 0.00 73 1013.7
20260901160219 87 344 0.0 0.0 0.00 0.00 0.00 73 1014.1
20260901155717 85 352 0.0 0.0 0.00 0.00 0.00 81 1014.3
20260901155212 85 161 0.0 0.0 0.00 0.00 0.00 75 1014.2
20260901154708 85 331 0.0 0.0 0.00 0.00 0.00 77 1014.2
20260901154202 86 347 0.0 0.0 0.00 0.00 0.00 74 1014.2
20260901153657 86 329 0.0 0.0 0.00 0.00 0.00 76 1014.2
20260901153151 87 307 0.0 0.0 0.00 0.00 0.00 70 1014.1
20260901152646 89 242 0.0 0.0 0.00 0.00 0.00 71 1014.1
20260901152144 88 349 0.0 0.0 0.00 0.00 0.00 72 1014.1
20260901151641 87 26 0.0 0.0 0.00 0.00 0.00 74 1014.2
20260901151140 86 4 0.0 0.0 0.00 0.00 0.00 73 1014.3
20260901150639 86 70 0.0 0.0 0.00 0.00 0.00 72 1014.0